Theta_e
282 282 282 283 283 284 284 285 286 286 286 287 287 287 288 288 288 289 289 290 290 291 290 290 290 290 290 290 291 291 292 293 293 293 293 293 294 294 294 294 294 294
281 281 281 281 282 282 283 283 284 284 285 286 286 287 287 287 287 287 287 288 288 289 290 290 290 289 289 289 289 290 290 290 291 291 291 291 291 291 292 292 292 292
279 280 280 280 281 281 281 282 282 282 283 284 284 285 286 286 287 287 287 287 287 287 288 288 289 289 289 289 289 289 289 289 289 289 290 290 290 290 290 290 290 290
278 278 278 279 279 280 280 281 281 281 281 282 283 284 284 285 285 286 286 286 287 287 286 286 287 287 288 288 288 288 289 289 289 289 289 289 289 289 289 289 289 289
277 277 277 278 278 279 279 279 280 280 280 281 281 281 282 283 284 284 285 286 286 286 286 286 286 286 286 286 287 287 287 288 288 288 289 289 289 289 289 289 289 289
277 277 277 277 277 278 278 278 278 279 279 279 280 280 280 281 282 282 283 284 285 285 285 285 286 286 286 286 286 286 286 287 287 287 287 287 288 288 288 288 288 288
277 277 277 277 277 277 278 278 277 278 278 278 279 279 279 280 280 281 281 282 283 283 284 284 285 285 285 285 285 285 285 286 286 286 286 286 286 287 287 287 287 288
277 277 277 277 277 277 277 277 277 277 277 277 277 278 279 279 279 279 280 280 281 281 282 282 283 284 284 285 285 285 285 285 285 285 285 286 286 286 286 286 286 286
277 277 276 276 276 276 276 276 276 276 276 276 276 277 277 278 278 278 278 278 279 279 280 280 281 281 282 283 283 284 284 285 285 285 285 285 285 285 285 285 285 285
277 276 276 276 275 275 275 275 276 275 276 276 275 275 276 277 277 277 276 277 277 278 278 279 279 280 280 281 281 282 282 283 284 284 284 284 285 285 285 285 285 285
277 276 276 275 275 275 274 274 275 275 275 275 275 274 275 275 276 276 276 276 276 276 276 277 278 278 279 279 279 280 280 281 282 282 283 283 283 283 284 284 284 284
277 276 276 275 275 274 274 274 274 274 274 274 274 274 274 274 274 275 275 275 275 275 275 276 276 277 277 277 278 279 279 280 280 280 281 281 281 281 282 282 282 283
277 276 276 275 275 274 274 274 274 273 273 273 273 273 273 273 273 273 274 274 274 275 275 275 275 276 276 276 277 277 278 278 278 278 278 279 279 279 280 280 281 281
277 276 276 275 275 274 274 273 273 273 273 272 273 273 273 272 272 272 272 273 273 273 274 274 274 275 275 275 276 276 276 276 276 277 277 277 277 278 278 279 279 280
277 276 276 275 274 274 274 273 273 272 272 272 272 272 272 272 271 271 271 272 272 272 273 273 273 274 274 274 274 275 274 274 275 275 276 277 277 277 277 278 278 279
277 276 276 275 274 274 274 273 273 272 272 272 272 272 272 271 270 270 270 271 271 271 272 272 272 273 273 273 273 273 273 273 274 274 275 275 276 276 276 277 277 277
277 276 276 275 274 274 273 273 272 272 272 271 271 271 271 270 270 270 270 270 270 271 271 271 271 271 272 273 273 272 273 273 273 274 274 274 275 275 275 276 276 276
277 276 275 274 274 273 273 273 272 272 271 271 271 271 270 270 269 269 269 269 270 270 270 270 270 270 271 271 271 272 272 273 273 273 273 273 274 274 274 274 275 275
277 276 275 274 273 273 273 272 272 271 271 271 271 270 270 269 269 268 269 269 269 269 269 269 269 269 269 270 270 271 272 272 272 272 272 272 273 273 273 273 273 273
276 276 275 274 273 273 272 271 271 271 271 270 270 270 269 268 268 268 268 269 269 269 269 269 269 269 269 269 269 270 270 271 270 271 271 272 272 272 272 271 271 271
276 275 275 274 273 272 271 271 271 271 270 270 270 269 269 268 268 268 268 268 269 269 269 269 269 268 268 268 268 269 269 270 270 270 270 270 271 271 270 270 270 270
275 274 274 273 272 271 271 271 271 270 270 269 269 268 268 268 267 268 268 268 268 268 268 268 268 268 268 268 268 268 269 269 269 269 269 270 270 269 269 269 269 269
274 273 273 272 271 270 270 270 270 270 269 269 268 268 268 267 267 267 267 267 268 268 268 268 268 268 268 268 268 268 268 268 269 269 269 269 269 269 268 268 268 267
273 273 272 271 270 270 270 270 270 269 269 268 267 267 267 267 267 267 267 267 267 267 267 268 267 267 267 267 267 267 267 268 268 268 268 268 268 268 268 268 267 267
272 272 271 270 270 270 270 269 269 269 268 268 267 267 267 267 267 267 267 267 267 267 267 267 267 267 267 267 267 267 267 267 267 267 267 267 267 267 268 268 267 267
271 270 270 270 269 269 269 269 268 268 268 267 267 267 267 267 267 267 267 266 266 266 266 267 267 266 266 266 267 267 267 266 266 266 266 266 266 267 267 267 267 267
Wind_Speed
22 21 21 21 20 20 20 20 21 20 20 19 19 19 19 18 18 17 16 17 16 16 15 14 14 14 15 16 18 19 21 22 24 24 25 26 27 27 28 29 29 30
23 22 20 20 19 19 19 20 21 21 22 21 21 22 21 21 21 19 18 19 19 19 19 19 18 16 15 15 15 16 18 19 21 21 22 23 24 24 25 26 26 27
24 24 23 22 20 20 19 20 21 21 22 23 22 23 22 23 23 21 20 20 20 19 19 19 20 21 21 20 19 19 18 19 19 19 21 22 22 22 22 22 22 23
25 24 25 27 25 22 20 20 20 21 22 23 23 23 23 24 24 23 23 23 22 20 19 18 18 19 20 21 22 23 24 24 24 23 24 24 24 24 23 23 23 22
25 24 25 28 28 26 23 23 23 22 22 23 23 23 23 24 24 24 24 24 24 23 21 19 19 18 18 19 20 21 22 24 25 26 27 28 28 27 26 26 27 27
25 26 26 25 26 28 27 27 26 25 24 24 23 23 22 23 24 23 24 24 24 24 23 22 22 20 19 19 19 19 19 19 20 21 23 25 26 28 28 28 28 29
24 26 25 21 22 27 28 28 28 26 26 26 25 24 23 23 23 23 23 24 23 23 23 23 24 23 22 21 20 20 19 19 19 19 20 21 23 24 26 26 27 28
24 26 25 22 22 27 28 28 28 27 26 26 27 26 25 23 22 22 22 22 22 22 22 22 23 23 23 23 22 22 21 20 20 21 22 22 22 22 23 23 24 25
24 25 26 24 23 26 29 28 28 27 27 27 26 26 27 25 23 22 22 21 21 20 20 21 21 22 22 22 22 22 22 22 22 22 22 22 22 22 22 22 23 24
23 24 25 25 23 24 28 29 29 28 28 27 26 26 27 27 25 23 22 22 20 19 19 20 20 20 21 21 20 20 21 22 23 23 23 23 22 22 22 22 23 24
23 23 24 24 24 25 27 30 32 31 28 27 27 25 26 27 26 24 22 22 21 19 19 19 20 20 20 19 19 19 20 21 21 21 21 21 21 21 21 21 21 22
23 23 23 23 25 26 27 30 33 33 30 28 27 26 26 26 26 25 23 22 22 21 20 20 20 19 18 18 19 19 19 19 19 19 18 18 18 17 17 17 17 18
23 24 24 24 26 27 28 31 33 33 31 29 27 27 26 26 26 25 23 23 22 21 21 21 20 18 18 18 19 18 17 16 15 14 14 14 15 15 15 15 15 15
25 25 25 26 27 28 29 32 33 32 31 30 29 28 26 26 26 25 24 23 21 21 20 20 19 18 18 18 17 15 14 13 11 10 11 12 13 14 15 15 16 15
28 26 25 26 26 27 30 32 33 32 32 31 30 28 26 25 25 25 25 23 21 20 19 18 18 17 16 16 15 13 12 11 10 10 12 12 13 13 13 14 14 14
32 28 26 26 26 28 30 32 34 34 33 33 31 28 26 25 24 24 23 22 21 19 18 17 16 16 15 14 12 11 12 11 11 12 14 14 15 15 14 15 15 15
31 27 27 26 26 28 30 32 33 34 35 34 32 29 26 24 23 23 21 20 20 18 17 16 15 14 13 12 10 9 11 11 12 13 13 15 16 15 15 15 16 18
27 25 26 25 26 28 31 32 33 34 35 35 32 29 26 23 22 21 20 19 18 17 16 15 15 13 12 10 8 8 10 12 14 12 12 13 14 14 15 17 19 20
25 24 24 23 25 29 32 33 33 34 35 34 31 28 26 23 21 20 18 17 17 16 15 14 13 13 10 8 6 7 8 12 13 12 12 14 15 16 17 17 18 18
24 24 23 24 28 32 34 33 33 34 35 33 30 26 24 22 20 19 17 16 15 14 14 13 12 12 10 8 8 7 8 11 13 12 13 16 17 17 15 14 14 14
25 25 25 26 30 33 33 32 32 34 34 31 28 25 23 21 19 18 16 15 14 13 12 11 11 11 9 9 9 7 9 13 16 13 12 14 14 13 10 9 11 12
24 24 24 26 30 32 32 31 32 33 32 29 25 23 21 19 17 16 15 14 13 11 11 10 9 9 8 9 8 7 11 15 14 10 9 9 9 9 7 7 10 12
23 22 25 30 32 32 31 31 32 32 30 26 23 21 19 17 16 15 13 12 11 10 9 8 7 7 7 8 8 7 11 14 13 10 8 8 7 5 4 6 9 9
24 26 31 35 34 32 30 30 31 30 27 24 22 20 18 16 15 13 11 11 10 9 8 7 6 7 7 8 7 7 9 13 13 11 9 8 6 2 3 9 11 10
30 33 35 35 32 30 29 29 29 27 25 22 19 18 17 15 13 12 10 9 9 8 8 7 6 7 7 8 8 7 8 12 13 10 7 6 5 4 8 13 14 14
33 35 35 32 29 28 28 28 27 25 23 20 18 16 15 13 12 11 9 8 8 8 9 9 8 7 6 7 7 5 7 10 10 8 8 8 8 8 11 14 16 18
Wind_Direction
335 332 328 325 324 321 318 315 311 310 307 306 304 300 298 294 287 280 271 263 258 257 259 261 267 273 275 274 270 265 260 255 253 253 253 254 254 255 255 255 254 253
336 334 329 324 321 320 320 317 314 311 307 305 303 299 298 296 292 290 285 277 269 261 255 250 249 250 254 259 264 267 268 266 264 262 261 260 259 259 258 258 257 255
341 337 333 328 322 318 320 319 316 314 309 305 303 299 298 295 292 291 289 285 282 277 270 262 254 248 245 244 243 245 248 254 257 258 260 261 263 264 263 262 261 259
342 340 335 332 328 322 321 321 317 315 312 307 304 301 299 295 292 291 289 286 284 283 281 276 269 260 253 247 242 240 239 239 240 240 242 244 248 252 254 255 256 256
339 339 335 336 334 328 326 327 325 321 317 312 308 305 302 297 294 292 288 286 285 284 281 278 274 268 263 257 251 247 244 242 242 241 241 240 240 242 243 245 246 246
336 333 333 338 333 324 323 326 327 324 321 317 312 308 305 300 298 295 290 287 286 285 283 279 275 270 265 262 258 255 250 247 244 243 244 245 244 243 243 244 245 245
329 324 328 334 322 315 317 321 324 324 322 320 316 312 308 304 300 298 294 291 288 285 283 281 278 274 269 264 259 256 253 250 247 243 241 242 244 244 243 244 246 248
323 325 328 327 315 314 320 322 323 325 323 321 318 314 311 309 305 301 297 294 291 288 284 281 279 277 274 270 265 260 256 252 249 246 244 243 242 242 242 241 243 245
324 328 327 322 315 316 321 324 325 325 324 322 319 314 311 309 308 306 302 297 293 291 287 283 280 278 275 272 270 267 262 257 252 249 247 246 245 244 242 240 239 240
319 323 322 321 317 314 317 323 328 328 325 322 319 314 310 308 308 306 303 300 298 294 289 285 282 279 276 274 274 271 267 262 258 254 251 250 249 248 246 244 242 242
314 318 321 318 316 316 316 320 328 330 326 322 319 314 308 307 307 305 302 300 300 296 291 288 284 281 281 280 276 270 266 265 264 262 260 258 256 255 254 252 250 249
309 312 314 311 313 316 313 317 326 330 326 323 319 313 308 306 306 306 303 299 297 296 294 291 288 288 287 282 275 271 271 270 269 267 265 262 261 260 258 256 255 254
303 304 306 305 309 312 312 318 327 328 325 323 318 313 309 305 303 304 302 299 297 297 295 292 292 291 287 282 279 279 278 274 271 271 270 268 263 258 253 249 247 248
302 299 298 300 306 310 312 320 326 327 324 320 317 315 310 304 303 302 300 300 299 297 294 292 292 289 286 285 284 283 278 273 272 272 269 268 266 261 256 251 248 249
303 295 292 296 301 305 311 319 325 327 323 319 317 315 309 304 302 300 299 300 299 296 294 293 291 288 286 286 284 283 281 275 270 268 262 257 255 254 254 253 250 248
300 290 286 291 294 300 309 318 324 325 323 320 316 312 308 303 300 297 297 298 298 296 294 292 289 285 283 280 280 294 302 290 276 276 273 265 260 257 254 255 253 248
293 283 280 284 289 296 306 315 320 322 322 320 315 310 307 301 297 296 296 295 295 294 294 290 286 284 282 276 282 311 323 310 290 283 280 273 270 269 265 263 262 259
286 279 276 279 286 296 305 312 316 319 320 318 313 309 305 300 297 296 293 293 292 291 290 287 284 284 278 276 297 327 333 317 297 281 274 274 275 277 277 275 274 273
283 277 272 275 287 298 305 309 313 317 318 316 311 307 303 300 298 295 292 291 289 287 286 283 283 281 274 271 293 322 332 315 297 282 275 276 277 280 284 285 284 284
283 279 272 277 291 302 306 308 312 317 316 313 309 304 301 300 298 294 292 289 287 286 284 282 281 277 272 267 271 302 329 302 280 277 279 279 282 286 290 293 291 292
284 277 272 281 296 305 306 307 312 316 315 310 307 302 300 299 297 294 293 290 288 287 283 282 282 275 273 270 268 301 322 290 276 280 281 280 288 296 303 301 291 291
282 270 274 292 307 309 306 306 313 316 313 308 304 302 300 298 295 293 292 291 289 288 283 283 282 276 275 272 273 309 316 292 287 296 290 288 303 313 319 302 292 299
277 274 290 306 313 309 304 307 314 314 311 306 302 300 299 297 294 291 290 289 289 290 287 285 284 282 283 279 283 315 317 299 297 307 305 305 317 329 320 286 287 301
282 287 301 310 311 306 304 309 313 312 307 302 299 298 297 295 292 287 286 286 289 293 293 291 293 294 295 293 294 310 316 305 301 309 316 314 314 317 247 258 265 270
293 295 303 307 305 303 305 310 312 309 304 299 296 295 293 290 287 285 286 286 289 297 298 296 303 303 302 304 297 299 318 317 309 310 309 294 277 233 228 245 257 267
299 300 302 303 302 303 307 309 308 305 300 297 294 291 289 286 284 283 286 287 288 297 300 300 305 305 305 305 298 313 344 330 311 305 294 272 260 248 243 252 265 276